When you browse on this site, cookies collect data to enhance your experience and personalize the content and advertising you see.
Visit our Privacy Policy to learn more. By continuing to use the site, you agree to this use of cookies and data.
  • In Hungary
  • List of Countries
  • For 7 days
  • Water Temperature
  • Satellite Maps
  • Weather Map
  • News
  • Weather Widgets
  • user-avatar
    Login

    Hourly Weather Kastoria

    Today, 19 July, Friday

    Time Temperature Precipitation Wind Pressure Humidity
    00:00 +19°C° 0 mm 1 mps 702 mmHg 69%
    01:00 +18°C° 0 mm 1 mps 702 mmHg 71%
    02:00 +18°C° 0 mm 1 mps 702 mmHg 72%
    03:00 +16°C° 0 mm 0 mps 702 mmHg 73%
    04:00 +16°C° 0 mm 0 mps 702 mmHg 74%
    05:00 +17°C° 0 mm 0 mps 703 mmHg 70%
    06:00 +19°C° 0 mm 0 mps 703 mmHg 65%
    07:00 +21°C° 0 mm 0 mps 704 mmHg 60%
    08:00 +24°C° 0.1 mm 1 mps 704 mmHg 56%
    09:00 +26°C° 0.1 mm 1 mps 704 mmHg 51%
    10:00 +27°C° 0.1 mm 2 mps 704 mmHg 46%
    11:00 +27°C° 0.1 mm 2 mps 704 mmHg 45%
    12:00 +27°C° 0.1 mm 2 mps 704 mmHg 44%
    13:00 +28°C° 0 mm 2 mps 705 mmHg 43%
    14:00 +28°C° 0.2 mm 2 mps 705 mmHg 45%
    15:00 +27°C° 0.2 mm 2 mps 704 mmHg 46%
    16:00 +27°C° 0.2 mm 1 mps 704 mmHg 48%
    17:00 +26°C° 0.3 mm 1 mps 704 mmHg 54%
    18:00 +24°C° 0.3 mm 1 mps 704 mmHg 60%
    19:00 +22°C° 0.3 mm 1 mps 704 mmHg 67%
    20:00 +22°C° 0.8 mm 1 mps 705 mmHg 70%
    21:00 +21°C° 0.8 mm 1 mps 705 mmHg 74%
    22:00 +18°C° 0.8 mm 0 mps 705 mmHg 77%
    23:00 +18°C° 0.1 mm 0 mps 705 mmHg 78%

    Tomorrow, 20 July, Saturday

    Time Temperature Precipitation Wind Pressure Humidity
    00:00 +17°C° 0.1 mm 0 mps 704 mmHg 78%
    01:00 +17°C° 0.1 mm 0 mps 704 mmHg 79%
    02:00 +16°C° 0 mm 0 mps 704 mmHg 79%
    03:00 +16°C° 0 mm 0 mps 704 mmHg 80%
    04:00 +16°C° 0 mm 0 mps 704 mmHg 81%
    05:00 +17°C° 0 mm 0 mps 705 mmHg 77%
    06:00 +19°C° 0 mm 0 mps 705 mmHg 73%
    07:00 +20°C° 0 mm 0 mps 706 mmHg 69%
    08:00 +24°C° 0 mm 1 mps 706 mmHg 62%
    09:00 +26°C° 0 mm 1 mps 706 mmHg 56%
    10:00 +27°C° 0 mm 1 mps 707 mmHg 49%
    11:00 +28°C° 0.1 mm 1 mps 707 mmHg 47%
    12:00 +29°C° 0.1 mm 1 mps 707 mmHg 44%
    13:00 +29°C° 0.1 mm 1 mps 707 mmHg 42%
    14:00 +29°C° 0 mm 1 mps 707 mmHg 43%
    15:00 +29°C° 0 mm 1 mps 706 mmHg 44%
    16:00 +28°C° 0 mm 1 mps 706 mmHg 45%
    17:00 +27°C° 0 mm 1 mps 706 mmHg 50%
    18:00 +25°C° 0 mm 1 mps 706 mmHg 55%
    19:00 +21°C° 0 mm 0 mps 706 mmHg 60%
    20:00 +21°C° 0 mm 0 mps 706 mmHg 62%
    21:00 +20°C° 0 mm 0 mps 706 mmHg 65%
    22:00 +19°C° 0 mm 0 mps 706 mmHg 67%
    23:00 +19°C° 0 mm 0 mps 706 mmHg 68%

    Day after tomorrow, 21 July, Sunday

    Time Temperature Precipitation Wind Pressure Humidity
    00:00 +18°C° 0 mm 0 mps 706 mmHg 70%
    01:00 +18°C° 0 mm 0 mps 706 mmHg 71%
    02:00 +18°C° 0 mm 0 mps 706 mmHg 72%
    03:00 +19°C° 0 mm 1 mps 706 mmHg 73%
    04:00 +19°C° 0 mm 1 mps 706 mmHg 74%
    05:00 +19°C° 0 mm 0 mps 706 mmHg 70%
    06:00 +21°C° 0 mm 0 mps 706 mmHg 65%
    07:00 +22°C° 0 mm 0 mps 707 mmHg 61%
    08:00 +26°C° 0 mm 1 mps 707 mmHg 56%
    09:00 +28°C° 0 mm 1 mps 707 mmHg 51%
    10:00 +29°C° 0 mm 1 mps 708 mmHg 46%
    11:00 +30°C° 0 mm 1 mps 708 mmHg 43%
    12:00 +30°C° 0 mm 1 mps 707 mmHg 41%
    13:00 +31°C° 0 mm 1 mps 707 mmHg 39%
    14:00 +31°C° 0 mm 1 mps 707 mmHg 39%
    15:00 +31°C° 0 mm 2 mps 707 mmHg 39%
    16:00 +31°C° 0 mm 2 mps 707 mmHg 39%
    17:00 +29°C° 0 mm 2 mps 707 mmHg 45%
    18:00 +27°C° 0 mm 1 mps 706 mmHg 50%
    19:00 +25°C° 0 mm 1 mps 706 mmHg 56%
    20:00 +24°C° 0 mm 1 mps 706 mmHg 57%
    21:00 +23°C° 0 mm 1 mps 707 mmHg 59%
    22:00 +21°C° 0 mm 0 mps 707 mmHg 60%
    23:00 +22°C° 0 mm 1 mps 707 mmHg 62%

    22 July, Monday

    Time Temperature Precipitation Wind Pressure Humidity
    00:00 +22°C° 0 mm 1 mps 706 mmHg 63%
    01:00 +21°C° 0 mm 1 mps 706 mmHg 65%
    02:00 +21°C° 0 mm 1 mps 706 mmHg 66%
    03:00 +21°C° 0 mm 1 mps 706 mmHg 67%
    04:00 +20°C° 0 mm 1 mps 706 mmHg 68%
    05:00 +22°C° 0 mm 1 mps 706 mmHg 65%
    06:00 +24°C° 0 mm 1 mps 706 mmHg 61%
    07:00 +25°C° 0 mm 1 mps 707 mmHg 58%
    08:00 +27°C° 0 mm 1 mps 707 mmHg 52%
    09:00 +28°C° 0 mm 2 mps 707 mmHg 46%
    10:00 +30°C° 0 mm 2 mps 707 mmHg 41%
    11:00 +30°C° 0 mm 3 mps 707 mmHg 39%
    12:00 +31°C° 0 mm 3 mps 707 mmHg 38%
    13:00 +31°C° 0 mm 3 mps 707 mmHg 37%
    14:00 +31°C° 0 mm 3 mps 706 mmHg 37%
    15:00 +31°C° 0 mm 3 mps 706 mmHg 38%
    16:00 +31°C° 0 mm 3 mps 706 mmHg 38%
    17:00 +29°C° 0 mm 2 mps 706 mmHg 43%
    18:00 +27°C° 0 mm 2 mps 705 mmHg 48%
    19:00 +26°C° 0 mm 1 mps 705 mmHg 53%
    20:00 +25°C° 0 mm 1 mps 705 mmHg 55%
    21:00 +24°C° 0 mm 2 mps 705 mmHg 57%
    22:00 +23°C° 0 mm 2 mps 705 mmHg 59%
    23:00 +23°C° 0 mm 2 mps 705 mmHg 63%

    23 July, Tuesday

    Time Temperature Precipitation Wind Pressure Humidity
    00:00 +21°C° 0 mm 2 mps 705 mmHg 67%
    01:00 +21°C° 0 mm 2 mps 705 mmHg 70%
    02:00 +20°C° 0 mm 2 mps 704 mmHg 74%
    03:00 +20°C° 0 mm 2 mps 704 mmHg 77%
    04:00 +19°C° 0 mm 2 mps 704 mmHg 81%
    05:00 +21°C° 0 mm 2 mps 704 mmHg 76%
    06:00 +23°C° 0 mm 2 mps 704 mmHg 70%
    07:00 +25°C° 0 mm 2 mps 704 mmHg 65%
    08:00 +26°C° 0 mm 2 mps 705 mmHg 60%
    09:00 +27°C° 0 mm 2 mps 705 mmHg 55%
    10:00 +28°C° 0 mm 2 mps 705 mmHg 50%
    11:00 +29°C° 0 mm 3 mps 705 mmHg 47%
    12:00 +30°C° 0 mm 3 mps 704 mmHg 44%
    13:00 +30°C° 0 mm 4 mps 704 mmHg 42%
    14:00 +30°C° 0 mm 4 mps 704 mmHg 41%
    15:00 +30°C° 0 mm 4 mps 703 mmHg 39%
    16:00 +30°C° 0 mm 4 mps 703 mmHg 38%
    17:00 +28°C° 0 mm 3 mps 703 mmHg 44%
    18:00 +26°C° 0 mm 3 mps 703 mmHg 49%
    19:00 +24°C° 0 mm 2 mps 703 mmHg 54%
    20:00 +23°C° 0 mm 2 mps 703 mmHg 57%
    21:00 +21°C° 0 mm 2 mps 703 mmHg 59%
    22:00 +20°C° 0 mm 2 mps 703 mmHg 61%
    23:00 +19°C° 0 mm 2 mps 703 mmHg 64%

    24 July, Wednesday

    Time Temperature Precipitation Wind Pressure Humidity
    00:00 +19°C° 0 mm 2 mps 703 mmHg 67%
    01:00 +19°C° 0 mm 1 mps 703 mmHg 70%
    02:00 +19°C° 0 mm 1 mps 703 mmHg 73%
    03:00 +18°C° 0 mm 1 mps 703 mmHg 76%
    04:00 +18°C° 0 mm 1 mps 702 mmHg 78%
    05:00 +19°C° 0 mm 1 mps 703 mmHg 73%
    06:00 +21°C° 0 mm 1 mps 704 mmHg 67%
    07:00 +21°C° 0 mm 2 mps 704 mmHg 61%
    08:00 +23°C° 0 mm 2 mps 704 mmHg 57%
    09:00 +25°C° 0 mm 2 mps 704 mmHg 53%
    10:00 +26°C° 0 mm 2 mps 705 mmHg 48%
    11:00 +27°C° 0 mm 2 mps 705 mmHg 46%
    12:00 +27°C° 0 mm 2 mps 705 mmHg 43%
    13:00 +28°C° 0 mm 2 mps 705 mmHg 40%
    14:00 +28°C° 0 mm 2 mps 705 mmHg 40%
    15:00 +29°C° 0 mm 2 mps 704 mmHg 39%
    16:00 +29°C° 0 mm 2 mps 704 mmHg 39%
    17:00 +27°C° 0 mm 2 mps 704 mmHg 45%
    18:00 +25°C° 0 mm 1 mps 704 mmHg 50%
    19:00 +23°C° 0 mm 1 mps 704 mmHg 56%
    20:00 +22°C° 0 mm 1 mps 704 mmHg 58%
    21:00 +21°C° 0 mm 1 mps 704 mmHg 59%
    22:00 +20°C° 0 mm 1 mps 705 mmHg 61%
    23:00 +20°C° 0 mm 1 mps 705 mmHg 62%
    Show more